| time (UTC) | temp F | wind direction | speed MPH | gust MPH | rain 1hr in | rain 24hr in | rain mn in | humidity % | barometer mb |
| 20260502201620 | 60 | 313 | 2.0 | 6.0 | 0.00 | 0.00 | 0.00 | 35 | 1018.6 |
| 20260502201116 | 59 | 328 | 3.0 | 6.0 | 0.00 | 0.00 | 0.00 | 36 | 1018.7 |
| 20260502200612 | 60 | 348 | 2.0 | 6.0 | 0.00 | 0.00 | 0.00 | 34 | 1018.6 |
| 20260502200109 | 60 | 229 | 5.0 | 10.0 | 0.00 | 0.00 | 0.00 | 35 | 1018.9 |
| 20260502195607 | 60 | 307 | 6.0 | 8.0 | 0.00 | 0.00 | 0.00 | 33 | 1018.8 |
| 20260502195057 | 60 | 242 | 5.0 | 7.0 | 0.00 | 0.00 | 0.00 | 34 | 1018.9 |
| 20260502194554 | 60 | 299 | 5.0 | 8.0 | 0.00 | 0.00 | 0.00 | 34 | 1019.0 |
| 20260502194050 | 59 | 302 | 5.0 | 7.0 | 0.00 | 0.00 | 0.00 | 34 | 1019.0 |
| 20260502193548 | 59 | 280 | 1.0 | 7.0 | 0.00 | 0.00 | 0.00 | 34 | 1019.1 |
| 20260502193044 | 58 | 342 | 4.0 | 6.0 | 0.00 | 0.00 | 0.00 | 35 | 1019.1 |
| 20260502192540 | 58 | 37 | 4.0 | 6.0 | 0.00 | 0.00 | 0.00 | 37 | 1019.2 |
| 20260502192038 | 59 | 34 | 3.0 | 9.0 | 0.00 | 0.00 | 0.00 | 35 | 1019.1 |
| 20260502191534 | 58 | 194 | 5.0 | 7.0 | 0.00 | 0.00 | 0.00 | 36 | 1019.2 |
| 20260502191033 | 59 | 247 | 6.0 | 7.0 | 0.00 | 0.00 | 0.00 | 35 | 1019.3 |
| 20260502190530 | 59 | 331 | 4.0 | 9.0 | 0.00 | 0.00 | 0.00 | 32 | 1019.4 |
| 20260502190026 | 60 | 297 | 0.0 | 2.0 | 0.00 | 0.00 | 0.00 | 35 | 1019.3 |
| 20260502185521 | 58 | 319 | 0.0 | 6.0 | 0.00 | 0.00 | 0.00 | 39 | 1019.4 |
| 20260502185019 | 59 | 265 | 4.0 | 6.0 | 0.00 | 0.00 | 0.00 | 36 | 1019.6 |
| 20260502184514 | 59 | 222 | 4.0 | 7.0 | 0.00 | 0.00 | 0.00 | 36 | 1019.5 |
| 20260502184011 | 60 | 271 | 5.0 | 7.0 | 0.00 | 0.00 | 0.00 | 36 | 1019.7 |
| 20260502183507 | 60 | 295 | 4.0 | 6.0 | 0.00 | 0.00 | 0.00 | 36 | 1019.7 |
| 20260502183003 | 59 | 188 | 2.0 | 2.0 | 0.00 | 0.00 | 0.00 | 38 | 1019.8 |
| 20260502182457 | 57 | 258 | 1.0 | 3.0 | 0.00 | 0.00 | 0.00 | 39 | 1019.7 |
| 20260502181954 | 56 | 317 | 2.0 | 8.0 | 0.00 | 0.00 | 0.00 | 40 | 1019.9 |
| 20260502181452 | 59 | 345 | 3.0 | 10.0 | 0.00 | 0.00 | 0.00 | 37 | 1019.9 |
| 20260502180951 | 57 | 352 | 8.0 | 9.0 | 0.00 | 0.00 | 0.00 | 38 | 1019.9 |
| 20260502180447 | 56 | 312 | 0.0 | 6.0 | 0.00 | 0.00 | 0.00 | 39 | 1019.9 |
| 20260502170406 | 55 | 220 | 5.0 | 8.0 | 0.00 | 0.00 | 0.00 | 37 | 1020.7 |
| 20260502163849 | 56 | 2 | 5.0 | 8.0 | 0.00 | 0.00 | 0.00 | 38 | 1020.5 |
| 20260502163346 | 54 | 264 | 2.0 | 5.0 | 0.00 | 0.00 | 0.00 | 39 | 1020.6 |
| 20260502162844 | 54 | 335 | 3.0 | 6.0 | 0.00 | 0.00 | 0.00 | 39 | 1020.8 |
| 20260502162340 | 55 | 315 | 8.0 | 9.0 | 0.00 | 0.00 | 0.00 | 39 | 1020.9 |
| 20260502161837 | 54 | 289 | 2.0 | 7.0 | 0.00 | 0.00 | 0.00 | 41 | 1020.7 |
| 20260502161333 | 54 | 306 | 6.0 | 8.0 | 0.00 | 0.00 | 0.00 | 39 | 1020.8 |
| 20260502160832 | 54 | 343 | 0.0 | 2.0 | 0.00 | 0.00 | 0.00 | 40 | 1020.8 |
| 20260502160330 | 54 | 59 | 4.0 | 6.0 | 0.00 | 0.00 | 0.00 | 39 | 1020.9 |
| 20260502152259 | 53 | 318 | 2.0 | 8.0 | 0.00 | 0.00 | 0.00 | 40 | 1020.8 |
| 20260502151756 | 53 | 327 | 5.0 | 7.0 | 0.00 | 0.00 | 0.00 | 44 | 1020.8 |
| 20260502151253 | 53 | 308 | 5.0 | 6.0 | 0.00 | 0.00 | 0.00 | 40 | 1020.7 |
| 20260502150752 | 52 | 26 | 2.0 | 6.0 | 0.00 | 0.00 | 0.00 | 44 | 1020.8 |
| 20260502150248 | 52 | 336 | 4.0 | 5.0 | 0.00 | 0.00 | 0.00 | 45 | 1021.1 |
| 20260502130636 | 41 | 343 | 0.0 | 2.0 | 0.00 | 0.00 | 0.00 | 79 | 1020.6 |
| 20260502130134 | 41 | 307 | 3.0 | 3.0 | 0.00 | 0.00 | 0.00 | 80 | 1020.8 |
| 20260502123620 | 39 | 322 | 2.0 | 2.0 | 0.00 | 0.00 | 0.00 | 84 | 1020.7 |
| 20260502123116 | 38 | 310 | 1.0 | 2.0 | 0.00 | 0.00 | 0.00 | 85 | 1020.9 |
| 20260502122613 | 38 | 308 | 1.0 | 2.0 | 0.00 | 0.00 | 0.00 | 87 | 1020.8 |
| 20260502122109 | 37 | 302 | 0.0 | 1.0 | 0.00 | 0.00 | 0.00 | 88 | 1020.7 |
| 20260502121608 | 37 | 299 | 1.0 | 2.0 | 0.00 | 0.00 | 0.00 | 88 | 1020.7 |
| 20260502121105 | 37 | 305 | 1.0 | 2.0 | 0.00 | 0.00 | 0.00 | 89 | 1020.5 |
| 20260502120600 | 36 | 303 | 0.0 | 1.0 | 0.00 | 0.00 | 0.00 | 88 | 1020.4 |
| 20260502115556 | 36 | 304 | 1.0 | 2.0 | 0.00 | 0.00 | 0.00 | 88 | 1020.3 |
| 20260502115051 | 36 | 304 | 1.0 | 2.0 | 0.00 | 0.00 | 0.00 | 88 | 1020.2 |
| 20260502114548 | 36 | 308 | 2.0 | 2.0 | 0.00 | 0.00 | 0.00 | 88 | 1020.1 |
| 20260502114045 | 36 | 307 | 1.0 | 1.0 | 0.00 | 0.00 | 0.00 | 89 | 1020.0 |
| 20260502113543 | 35 | 306 | 1.0 | 2.0 | 0.00 | 0.00 | 0.00 | 89 | 1020.2 |
| 20260502113041 | 35 | 306 | 1.0 | 2.0 | 0.00 | 0.00 | 0.00 | 89 | 1020.1 |
| 20260502112538 | 35 | 307 | 2.0 | 2.0 | 0.00 | 0.00 | 0.00 | 89 | 1019.8 |
| 20260502112036 | 36 | 305 | 1.0 | 2.0 | 0.00 | 0.00 | 0.00 | 88 | 1020.0 |
| 20260502111533 | 35 | 306 | 1.0 | 2.0 | 0.00 | 0.00 | 0.00 | 88 | 1019.7 |
| 20260502111030 | 35 | 302 | 2.0 | 3.0 | 0.00 | 0.00 | 0.00 | 88 | 1019.9 |
| 20260502110527 | 36 | 305 | 2.0 | 3.0 | 0.00 | 0.00 | 0.00 | 88 | 1019.9 |
| 20260502110025 | 36 | 305 | 1.0 | 2.0 | 0.00 | 0.00 | 0.00 | 87 | 1019.8 |
| 20260502105522 | 36 | 305 | 1.0 | 3.0 | 0.00 | 0.00 | 0.00 | 87 | 1019.9 |
| 20260502105020 | 36 | 305 | 1.0 | 1.0 | 0.00 | 0.00 | 0.00 | 87 | 1019.8 |
| 20260502104517 | 36 | 305 | 1.0 | 1.0 | 0.00 | 0.00 | 0.00 | 87 | 1019.7 |
| 20260502104014 | 36 | 305 | 1.0 | 2.0 | 0.00 | 0.00 | 0.00 | 87 | 1019.6 |
| 20260502103506 | 37 | 305 | 1.0 | 1.0 | 0.00 | 0.00 | 0.00 | 87 | 1019.6 |
| 20260502103004 | 37 | 308 | 2.0 | 2.0 | 0.00 | 0.00 | 0.00 | 86 | 1019.7 |
| 20260502102500 | 37 | 302 | 1.0 | 2.0 | 0.00 | 0.00 | 0.00 | 87 | 1019.6 |
| 20260502101956 | 37 | 302 | 1.0 | 2.0 | 0.00 | 0.00 | 0.00 | 87 | 1019.5 |
| 20260502101455 | 37 | 302 | 1.0 | 1.0 | 0.00 | 0.00 | 0.00 | 86 | 1019.5 |
| 20260502100953 | 37 | 302 | 1.0 | 2.0 | 0.00 | 0.00 | 0.00 | 86 | 1019.7 |
| 20260502100451 | 37 | 302 | 1.0 | 2.0 | 0.00 | 0.00 | 0.00 | 86 | 1019.7 |
| 20260502091426 | 38 | 308 | 1.0 | 1.0 | 0.00 | 0.00 | 0.00 | 84 | 1019.5 |
| 20260502090923 | 38 | 307 | 0.0 | 1.0 | 0.00 | 0.00 | 0.00 | 84 | 1019.5 |
| 20260502090420 | 38 | 307 | 0.0 | 1.0 | 0.00 | 0.00 | 0.00 | 84 | 1019.4 |
| 20260502071303 | 42 | 309 | 1.0 | 1.0 | 0.00 | 0.00 | 0.00 | 75 | 1019.3 |
| 20260502070801 | 42 | 305 | 1.0 | 1.0 | 0.00 | 0.00 | 0.00 | 75 | 1019.4 |
| 20260502070258 | 42 | 342 | 1.0 | 1.0 | 0.00 | 0.00 | 0.00 | 75 | 1019.5 |
| 20260502065757 | 41 | 343 | 0.0 | 0.0 | 0.00 | 0.00 | 0.00 | 76 | 1019.7 |
| 20260502065255 | 42 | 343 | 0.0 | 1.0 | 0.00 | 0.00 | 0.00 | 76 | 1019.3 |
| 20260502064752 | 42 | 343 | 0.0 | 1.0 | 0.00 | 0.00 | 0.00 | 76 | 1019.4 |
| 20260502064250 | 42 | 343 | 0.0 | 1.0 | 0.00 | 0.00 | 0.00 | 76 | 1019.6 |
| 20260502063747 | 42 | 343 | 0.0 | 1.0 | 0.00 | 0.00 | 0.00 | 75 | 1019.5 |
| 20260502063245 | 43 | 343 | 1.0 | 1.0 | 0.00 | 0.00 | 0.00 | 73 | 1019.5 |
| 20260502062742 | 43 | 344 | 1.0 | 1.0 | 0.00 | 0.00 | 0.00 | 72 | 1019.6 |
| 20260502062240 | 43 | 344 | 1.0 | 1.0 | 0.00 | 0.00 | 0.00 | 70 | 1019.7 |
| 20260502061738 | 44 | 345 | 1.0 | 1.0 | 0.00 | 0.00 | 0.00 | 67 | 1019.6 |
| 20260502061235 | 45 | 346 | 1.0 | 3.0 | 0.00 | 0.00 | 0.00 | 65 | 1019.7 |
| 20260502060730 | 45 | 346 | 3.0 | 3.0 | 0.00 | 0.00 | 0.00 | 66 | 1019.5 |
| 20260502060226 | 45 | 344 | 0.0 | 2.0 | 0.00 | 0.00 | 0.00 | 66 | 1019.6 |
| 20260502055724 | 45 | 343 | 1.0 | 2.0 | 0.00 | 0.00 | 0.00 | 66 | 1019.4 |
| 20260502055221 | 45 | 342 | 1.0 | 2.0 | 0.00 | 0.00 | 0.00 | 65 | 1019.5 |
| 20260502054720 | 45 | 342 | 1.0 | 2.0 | 0.00 | 0.00 | 0.00 | 66 | 1019.3 |
| 20260502054212 | 45 | 341 | 1.0 | 2.0 | 0.00 | 0.00 | 0.00 | 65 | 1019.4 |
| 20260502053710 | 46 | 340 | 2.0 | 2.0 | 0.00 | 0.00 | 0.00 | 64 | 1019.3 |
| 20260502053207 | 46 | 342 | 1.0 | 2.0 | 0.00 | 0.00 | 0.00 | 63 | 1019.3 |
| 20260502052705 | 46 | 335 | 1.0 | 3.0 | 0.00 | 0.00 | 0.00 | 64 | 1019.3 |
| 20260502052203 | 46 | 335 | 0.0 | 2.0 | 0.00 | 0.00 | 0.00 | 63 | 1019.1 |
| 20260502051700 | 46 | 335 | 1.0 | 1.0 | 0.00 | 0.00 | 0.00 | 63 | 1019.1 |
| 20260502051158 | 46 | 335 | 2.0 | 2.0 | 0.00 | 0.00 | 0.00 | 63 | 1019.3 |
| 20260502050654 | 46 | 334 | 0.0 | 1.0 | 0.00 | 0.00 | 0.00 | 64 | 1019.3 |
| 20260502050151 | 46 | 334 | 1.0 | 1.0 | 0.00 | 0.00 | 0.00 | 66 | 1019.2 |
| 20260502045647 | 46 | 335 | 1.0 | 2.0 | 0.00 | 0.00 | 0.00 | 65 | 1019.2 |
| 20260502045145 | 46 | 333 | 0.0 | 0.0 | 0.00 | 0.00 | 0.00 | 65 | 1019.2 |
| 20260502044641 | 47 | 333 | 0.0 | 0.0 | 0.00 | 0.00 | 0.00 | 64 | 1019.3 |
| 20260502044137 | 47 | 333 | 0.0 | 1.0 | 0.00 | 0.00 | 0.00 | 62 | 1019.3 |
| 20260502043635 | 47 | 333 | 1.0 | 1.0 | 0.00 | 0.00 | 0.00 | 61 | 1019.2 |
| 20260502043133 | 48 | 333 | 1.0 | 1.0 | 0.00 | 0.00 | 0.00 | 60 | 1019.2 |
| 20260502042626 | 48 | 332 | 1.0 | 1.0 | 0.00 | 0.00 | 0.00 | 59 | 1019.1 |
| 20260502042123 | 48 | 331 | 0.0 | 2.0 | 0.00 | 0.00 | 0.00 | 59 | 1019.1 |
| 20260502041621 | 48 | 331 | 1.0 | 2.0 | 0.00 | 0.00 | 0.00 | 59 | 1019.1 |
| 20260502041118 | 48 | 331 | 0.0 | 1.0 | 0.00 | 0.00 | 0.00 | 60 | 1019.2 |
| 20260502040615 | 48 | 331 | 1.0 | 1.0 | 0.00 | 0.00 | 0.00 | 60 | 1019.1 |
| 20260502040112 | 48 | 331 | 1.0 | 1.0 | 0.00 | 0.00 | 0.00 | 61 | 1019.1 |
| 20260502035608 | 47 | 331 | 0.0 | 0.0 | 0.00 | 0.00 | 0.00 | 62 | 1019.2 |
| 20260502035105 | 48 | 331 | 0.0 | 0.0 | 0.00 | 0.00 | 0.00 | 62 | 1019.0 |
| 20260502034603 | 48 | 331 | 0.0 | 0.0 | 0.00 | 0.00 | 0.00 | 62 | 1018.9 |
| 20260502034101 | 49 | 331 | 0.0 | 1.0 | 0.00 | 0.00 | 0.00 | 60 | 1019.1 |
| 20260502033559 | 49 | 334 | 2.0 | 2.0 | 0.00 | 0.00 | 0.00 | 59 | 1019.2 |
| 20260502033056 | 49 | 343 | 2.0 | 3.0 | 0.00 | 0.00 | 0.00 | 59 | 1019.1 |
| 20260502032552 | 50 | 342 | 1.0 | 2.0 | 0.00 | 0.00 | 0.00 | 59 | 1018.9 |
| 20260502032049 | 50 | 332 | 1.0 | 2.0 | 0.00 | 0.00 | 0.00 | 59 | 1018.9 |
| 20260502031547 | 49 | 330 | 2.0 | 2.0 | 0.00 | 0.00 | 0.00 | 59 | 1018.8 |
| 20260502031044 | 49 | 329 | 0.0 | 1.0 | 0.00 | 0.00 | 0.00 | 59 | 1018.9 |
| 20260502030543 | 50 | 329 | 0.0 | 1.0 | 0.00 | 0.00 | 0.00 | 60 | 1018.9 |
| 20260502030040 | 50 | 329 | 0.0 | 1.0 | 0.00 | 0.00 | 0.00 | 58 | 1018.7 |
| 20260502025538 | 50 | 329 | 1.0 | 1.0 | 0.00 | 0.00 | 0.00 | 57 | 1018.7 |
| 20260502025036 | 50 | 329 | 1.0 | 1.0 | 0.00 | 0.00 | 0.00 | 57 | 1018.7 |
| 20260502024532 | 50 | 329 | 0.0 | 1.0 | 0.00 | 0.00 | 0.00 | 57 | 1018.7 |
| 20260502024031 | 50 | 331 | 2.0 | 2.0 | 0.00 | 0.00 | 0.00 | 56 | 1018.7 |
| 20260502023528 | 51 | 343 | 2.0 | 2.0 | 0.00 | 0.00 | 0.00 | 56 | 1018.7 |
| 20260502023026 | 51 | 343 | 2.0 | 3.0 | 0.00 | 0.00 | 0.00 | 55 | 1018.5 |
| 20260502022522 | 51 | 349 | 1.0 | 2.0 | 0.00 | 0.00 | 0.00 | 54 | 1018.5 |
| 20260502022020 | 51 | 337 | 1.0 | 1.0 | 0.00 | 0.00 | 0.00 | 55 | 1018.4 |
| 20260502021517 | 51 | 335 | 2.0 | 3.0 | 0.00 | 0.00 | 0.00 | 54 | 1018.5 |
| 20260502021014 | 51 | 1 | 2.0 | 5.0 | 0.00 | 0.00 | 0.00 | 54 | 1018.2 |
| 20260502020512 | 51 | 9 | 4.0 | 6.0 | 0.00 | 0.00 | 0.00 | 52 | 1018.1 |
| 20260502020009 | 51 | 356 | 2.0 | 5.0 | 0.00 | 0.00 | 0.00 | 53 | 1017.9 |
| 20260502015507 | 51 | 6 | 2.0 | 5.0 | 0.00 | 0.00 | 0.00 | 53 | 1017.8 |
| 20260502015003 | 51 | 7 | 4.0 | 6.0 | 0.00 | 0.00 | 0.00 | 53 | 1017.9 |
| 20260502014459 | 51 | 355 | 5.0 | 6.0 | 0.00 | 0.00 | 0.00 | 52 | 1017.9 |
| 20260502013956 | 51 | 344 | 3.0 | 5.0 | 0.00 | 0.00 | 0.00 | 54 | 1017.8 |
| 20260502013452 | 52 | 356 | 2.0 | 7.0 | 0.00 | 0.00 | 0.00 | 54 | 1017.7 |
| 20260502012948 | 51 | 357 | 3.0 | 5.0 | 0.00 | 0.00 | 0.00 | 53 | 1017.9 |
| 20260502012446 | 52 | 337 | 3.0 | 5.0 | 0.00 | 0.00 | 0.00 | 52 | 1017.6 |
| 20260502011944 | 52 | 342 | 3.0 | 5.0 | 0.00 | 0.00 | 0.00 | 52 | 1017.5 |
| 20260502011439 | 52 | 353 | 3.0 | 6.0 | 0.00 | 0.00 | 0.00 | 52 | 1017.6 |
| 20260502010937 | 52 | 349 | 3.0 | 6.0 | 0.00 | 0.00 | 0.00 | 52 | 1017.3 |
| 20260502010433 | 52 | 19 | 4.0 | 5.0 | 0.00 | 0.00 | 0.00 | 51 | 1017.3 |
| 20260502005929 | 52 | 351 | 3.0 | 6.0 | 0.00 | 0.00 | 0.00 | 51 | 1017.3 |
| 20260502005427 | 53 | 0 | 6.0 | 7.0 | 0.00 | 0.00 | 0.00 | 50 | 1017.2 |
| 20260502004926 | 53 | 347 | 3.0 | 7.0 | 0.00 | 0.00 | 0.00 | 50 | 1017.1 |
| 20260502004421 | 53 | 1 | 3.0 | 7.0 | 0.00 | 0.00 | 0.00 | 50 | 1017.2 |
| 20260502003918 | 53 | 15 | 4.0 | 7.0 | 0.00 | 0.00 | 0.00 | 49 | 1017.1 |
| 20260502003416 | 54 | 23 | 5.0 | 8.0 | 0.00 | 0.00 | 0.00 | 48 | 1017.1 |
| 20260502002912 | 54 | 3 | 5.0 | 6.0 | 0.00 | 0.00 | 0.00 | 49 | 1017.0 |
| 20260502002409 | 54 | 12 | 5.0 | 7.0 | 0.00 | 0.00 | 0.00 | 47 | 1016.9 |
| 20260502001906 | 54 | 29 | 2.0 | 5.0 | 0.00 | 0.00 | 0.00 | 48 | 1016.9 |
| 20260502001404 | 54 | 334 | 6.0 | 8.0 | 0.00 | 0.00 | 0.00 | 47 | 1016.9 |
| 20260502000901 | 54 | 8 | 3.0 | 8.0 | 0.00 | 0.00 | 0.00 | 47 | 1016.8 |
| 20260502000402 | 54 | 13 | 2.0 | 7.0 | 0.00 | 0.00 | 0.00 | 48 | 1016.7 |
| 20260501235855 | 54 | 22 | 5.0 | 11.0 | 0.00 | 0.00 | 0.00 | 46 | 1016.8 |
| 20260501235351 | 54 | 358 | 4.0 | 8.0 | 0.00 | 0.00 | 0.00 | 46 | 1016.7 |
| 20260501234846 | 55 | 13 | 6.0 | 9.0 | 0.00 | 0.00 | 0.00 | 47 | 1016.7 |
| 20260501234343 | 55 | 1 | 5.0 | 8.0 | 0.00 | 0.00 | 0.00 | 46 | 1016.8 |
| 20260501233842 | 55 | 10 | 5.0 | 9.0 | 0.00 | 0.00 | 0.00 | 46 | 1016.6 |
| 20260501233339 | 55 | 356 | 4.0 | 10.0 | 0.00 | 0.00 | 0.00 | 46 | 1016.7 |
| 20260501232834 | 55 | 10 | 3.0 | 6.0 | 0.00 | 0.00 | 0.00 | 46 | 1016.6 |
| 20260501232332 | 55 | 353 | 5.0 | 11.0 | 0.00 | 0.00 | 0.00 | 44 | 1016.7 |
| 20260501231829 | 55 | 7 | 8.0 | 10.0 | 0.00 | 0.00 | 0.00 | 44 | 1016.8 |
| 20260501231327 | 55 | 352 | 6.0 | 9.0 | 0.00 | 0.00 | 0.00 | 44 | 1016.7 |
| 20260501230825 | 55 | 35 | 4.0 | 11.0 | 0.00 | 0.00 | 0.00 | 45 | 1016.7 |
| 20260501230324 | 56 | 1 | 8.0 | 10.0 | 0.00 | 0.00 | 0.00 | 46 | 1016.7 |
| 20260501225821 | 56 | 0 | 5.0 | 7.0 | 0.00 | 0.00 | 0.00 | 45 | 1016.6 |
| 20260501225319 | 56 | 316 | 5.0 | 15.0 | 0.00 | 0.00 | 0.00 | 43 | 1016.8 |
| 20260501224815 | 56 | 300 | 5.0 | 10.0 | 0.00 | 0.00 | 0.00 | 43 | 1016.8 |
| 20260501224312 | 55 | 13 | 5.0 | 9.0 | 0.00 | 0.00 | 0.00 | 44 | 1016.7 |
| 20260501223808 | 55 | 332 | 4.0 | 9.0 | 0.00 | 0.00 | 0.00 | 44 | 1016.7 |
| 20260501223304 | 55 | 346 | 6.0 | 11.0 | 0.00 | 0.00 | 0.00 | 44 | 1016.8 |
| 20260501222800 | 56 | 343 | 6.0 | 11.0 | 0.00 | 0.00 | 0.00 | 43 | 1016.8 |
| 20260501222258 | 56 | 61 | 7.0 | 10.0 | 0.00 | 0.00 | 0.00 | 43 | 1016.8 |
| 20260501221755 | 56 | 6 | 7.0 | 14.0 | 0.00 | 0.00 | 0.00 | 44 | 1016.5 |
| 20260501221252 | 56 | 3 | 5.0 | 13.0 | 0.00 | 0.00 | 0.00 | 43 | 1016.7 |
| 20260501220750 | 57 | 6 | 7.0 | 10.0 | 0.00 | 0.00 | 0.00 | 43 | 1016.6 |
| 20260501220247 | 58 | 309 | 2.0 | 7.0 | 0.00 | 0.00 | 0.00 | 42 | 1016.7 |
| 20260501215744 | 56 | 332 | 3.0 | 6.0 | 0.00 | 0.00 | 0.00 | 44 | 1016.8 |
| 20260501215239 | 56 | 358 | 7.0 | 10.0 | 0.00 | 0.00 | 0.00 | 45 | 1016.8 |
| 20260501214734 | 56 | 34 | 6.0 | 13.0 | 0.00 | 0.00 | 0.00 | 44 | 1016.6 |
| 20260501214231 | 56 | 27 | 4.0 | 7.0 | 0.00 | 0.00 | 0.00 | 47 | 1016.7 |
| 20260501213727 | 57 | 30 | 5.0 | 8.0 | 0.00 | 0.00 | 0.00 | 44 | 1016.5 |
| 20260501213223 | 58 | 281 | 5.0 | 9.0 | 0.00 | 0.00 | 0.00 | 42 | 1016.7 |
| 20260501212719 | 58 | 49 | 7.0 | 11.0 | 0.00 | 0.00 | 0.00 | 44 | 1016.6 |
| 20260501212216 | 56 | 335 | 7.0 | 9.0 | 0.00 | 0.00 | 0.00 | 47 | 1016.7 |
| 20260501211713 | 56 | 358 | 4.0 | 7.0 | 0.00 | 0.00 | 0.00 | 46 | 1016.9 |
| 20260501211210 | 57 | 333 | 7.0 | 8.0 | 0.00 | 0.00 | 0.00 | 45 | 1016.9 |
| 20260501210707 | 55 | 31 | 7.0 | 9.0 | 0.00 | 0.00 | 0.00 | 46 | 1016.9 |
| 20260501210204 | 56 | 16 | 5.0 | 13.0 | 0.00 | 0.00 | 0.00 | 47 | 1016.8 |
| 20260501205700 | 56 | 341 | 6.0 | 10.0 | 0.00 | 0.00 | 0.00 | 49 | 1017.0 |
| 20260501205157 | 56 | 352 | 7.0 | 11.0 | 0.00 | 0.00 | 0.00 | 46 | 1016.8 |
| 20260501204654 | 55 | 359 | 8.0 | 13.0 | 0.00 | 0.00 | 0.00 | 48 | 1017.0 |
| 20260501204150 | 55 | 320 | 7.0 | 10.0 | 0.00 | 0.00 | 0.00 | 48 | 1016.9 |
| 20260501203647 | 55 | 1 | 8.0 | 10.0 | 0.00 | 0.00 | 0.00 | 47 | 1017.1 |
| 20260501203145 | 56 | 22 | 8.0 | 11.0 | 0.00 | 0.00 | 0.00 | 48 | 1017.1 |
| 20260501202641 | 56 | 346 | 12.0 | 18.0 | 0.00 | 0.00 | 0.00 | 46 | 1017.1 |
| 20260501202138 | 56 | 16 | 3.0 | 9.0 | 0.00 | 0.00 | 0.00 | 47 | 1017.1 |